| time (UTC) | temp F | wind direction | speed knots | gust knots | rain 1hr in | rain 24hr in | rain mn in | humidity % | barometer mb |
| 20260505013108 | 62 | 360 | 2.6 | 13.9 | 0.00 | 0.01 | 0.01 | 73 | 999.0 |
| 20260505011557 | 63 | 360 | 3.5 | 10.4 | 0.00 | 0.01 | 0.01 | 72 | 998.7 |
| 20260505010050 | 62 | 360 | 1.7 | 8.7 | 0.01 | 0.01 | 0.01 | 75 | 998.8 |
| 20260505004559 | 62 | 360 | 1.7 | 7.8 | 0.01 | 0.01 | 0.01 | 77 | 998.8 |
| 20260505003057 | 63 | 360 | 1.7 | 4.3 | 0.01 | 0.01 | 0.01 | 76 | 998.3 |
| 20260505001600 | 64 | 360 | 0.0 | 7.0 | 0.01 | 0.01 | 0.01 | 73 | 998.0 |
| 20260505000115 | 65 | 360 | 1.7 | 8.7 | 0.00 | 0.00 | 0.00 | 68 | 998.8 |
| 20260504234554 | 66 | 0 | 0.9 | 2.6 | 0.00 | 0.00 | 0.00 | 63 | 997.9 |
| 20260504233055 | 67 | 360 | 0.9 | 3.5 | 0.00 | 0.00 | 0.00 | 62 | 998.3 |
| 20260504231555 | 66 | 360 | 0.9 | 2.6 | 0.00 | 0.00 | 0.00 | 69 | 997.3 |
| 20260504230104 | 67 | 0 | 0.0 | 1.7 | 0.00 | 0.00 | 0.00 | 70 | 996.9 |
| 20260504224550 | 68 | 0 | 0.9 | 3.5 | 0.00 | 0.00 | 0.00 | 69 | 997.2 |
| 20260504223101 | 70 | 360 | 1.7 | 13.9 | 0.00 | 0.00 | 0.00 | 66 | 998.0 |
| 20260504221603 | 74 | 360 | 1.7 | 11.3 | 0.00 | 0.00 | 0.00 | 50 | 998.2 |
| 20260504220100 | 77 | 9 | 2.6 | 11.3 | 0.00 | 0.00 | 0.00 | 39 | 997.7 |
| 20260504214553 | 79 | 5 | 2.6 | 8.7 | 0.00 | 0.00 | 0.00 | 40 | 997.5 |
| 20260504213051 | 79 | 5 | 3.5 | 12.2 | 0.00 | 0.00 | 0.00 | 38 | 997.7 |
| 20260504211550 | 77 | 5 | 2.6 | 8.7 | 0.00 | 0.00 | 0.00 | 40 | 998.0 |
| 20260504210052 | 78 | 5 | 2.6 | 13.9 | 0.00 | 0.00 | 0.00 | 40 | 998.0 |
| 20260504204601 | 80 | 5 | 3.5 | 13.9 | 0.00 | 0.00 | 0.00 | 37 | 998.1 |
| 20260504203100 | 79 | 9 | 4.3 | 13.9 | 0.00 | 0.00 | 0.00 | 38 | 998.3 |
| 20260504201556 | 81 | 5 | 3.5 | 10.4 | 0.00 | 0.00 | 0.00 | 37 | 998.4 |
| 20260504200052 | 79 | 9 | 2.6 | 11.3 | 0.00 | 0.00 | 0.00 | 41 | 998.5 |
| 20260504194549 | 79 | 5 | 3.5 | 12.2 | 0.00 | 0.00 | 0.00 | 39 | 998.8 |
| 20260504193048 | 80 | 5 | 5.2 | 12.2 | 0.00 | 0.00 | 0.00 | 36 | 999.2 |
| 20260504191605 | 79 | 9 | 3.5 | 15.6 | 0.00 | 0.00 | 0.00 | 37 | 999.2 |
| 20260504190049 | 79 | 9 | 3.5 | 13.9 | 0.00 | 0.00 | 0.00 | 34 | 999.2 |
| 20260504184549 | 79 | 5 | 3.5 | 11.3 | 0.00 | 0.00 | 0.00 | 35 | 999.2 |
| 20260504183052 | 79 | 5 | 2.6 | 10.4 | 0.00 | 0.00 | 0.00 | 38 | 999.4 |
| 20260504181557 | 78 | 5 | 2.6 | 10.4 | 0.00 | 0.00 | 0.00 | 41 | 999.6 |
| 20260504180127 | 78 | 5 | 3.5 | 13.0 | 0.00 | 0.00 | 0.00 | 36 | 999.7 |
| 20260504174555 | 78 | 5 | 3.5 | 10.4 | 0.00 | 0.03 | 0.00 | 38 | 999.9 |
| 20260504173051 | 77 | 5 | 3.5 | 11.3 | 0.00 | 0.03 | 0.00 | 39 | 1000.2 |
| 20260504171553 | 76 | 9 | 3.5 | 10.4 | 0.00 | 0.03 | 0.00 | 42 | 1000.4 |
| 20260504081556 | 45 | 0 | 0.0 | 0.0 | 0.00 | 0.11 | 0.00 | 86 | 1003.6 |
| 20260504044557 | 55 | 360 | 0.9 | 3.5 | 0.00 | 0.11 | 0.11 | 71 | 1005.2 |
| 20260504043054 | 56 | 360 | 0.9 | 4.3 | 0.00 | 0.11 | 0.11 | 70 | 1005.2 |
| 20260504041549 | 56 | 360 | 0.9 | 4.3 | 0.00 | 0.11 | 0.11 | 70 | 1005.1 |
| 20260504040054 | 55 | 360 | 0.0 | 3.5 | 0.00 | 0.11 | 0.11 | 70 | 1005.1 |
| 20260504034554 | 55 | 0 | 0.0 | 2.6 | 0.00 | 0.11 | 0.11 | 70 | 1005.3 |
| 20260504033058 | 55 | 0 | 0.0 | 3.5 | 0.00 | 0.11 | 0.11 | 69 | 1005.6 |
| 20260504031552 | 55 | 360 | 0.9 | 5.2 | 0.00 | 0.11 | 0.11 | 69 | 1005.8 |
| 20260504030054 | 56 | 0 | 0.0 | 1.7 | 0.00 | 0.11 | 0.11 | 66 | 1005.8 |
| 20260504024614 | 57 | 0 | 0.0 | 0.9 | 0.00 | 0.11 | 0.11 | 64 | 1005.7 |
| 20260504023052 | 58 | 5 | 0.0 | 1.7 | 0.00 | 0.11 | 0.11 | 63 | 1005.8 |
| 20260504021550 | 59 | 0 | 0.0 | 3.5 | 0.00 | 0.11 | 0.11 | 61 | 1005.6 |
| 20260504020047 | 59 | 5 | 0.9 | 2.6 | 0.00 | 0.11 | 0.11 | 60 | 1005.5 |
| 20260504014558 | 60 | 5 | 0.0 | 2.6 | 0.00 | 0.11 | 0.11 | 59 | 1005.3 |